Time,TemperatureF,DewpointF,PressureIn,WindDirection,WindDirectionDegrees,WindSpeedMPH,WindSpeedGustMPH,Humidity,HourlyPrecipIn,Conditions,Clouds,dailyrainin,SoftwareType,DateUTC
2013-07-24 00:04:00,75.6,72.2,29.87,WSW,248,0.0,0.0,89,0.00,,,0.00,WUHU216HW,2013-07-24 04:04:00,
2013-07-24 00:09:00,75.4,72.0,29.87,WSW,248,0.0,0.0,89,0.00,,,0.00,WUHU216HW,2013-07-24 04:09:00,
2013-07-24 00:14:00,75.4,72.0,29.87,WSW,248,0.0,0.0,89,0.00,,,0.00,WUHU216HW,2013-07-24 04:14:00,
2013-07-24 00:19:00,75.4,72.0,29.87,WSW,248,0.0,0.0,89,0.00,,,0.00,WUHU216HW,2013-07-24 04:19:00,
2013-07-24 00:24:00,75.4,72.0,29.87,North,0,0.4,1.1,89,0.00,,,0.00,WUHU216HW,2013-07-24 04:24:00,
2013-07-24 00:29:00,75.4,72.4,29.86,North,0,0.4,1.1,90,0.00,,,0.00,WUHU216HW,2013-07-24 04:29:00,
2013-07-24 00:34:00,75.2,72.2,29.86,North,0,0.0,0.7,90,0.00,,,0.00,WUHU216HW,2013-07-24 04:34:00,
2013-07-24 00:39:00,75.2,72.2,29.86,North,0,0.0,0.7,90,0.00,,,0.00,WUHU216HW,2013-07-24 04:39:00,
2013-07-24 00:44:00,75.2,72.2,29.86,North,0,0.0,0.0,90,0.00,,,0.00,WUHU216HW,2013-07-24 04:44:00,
2013-07-24 00:49:00,75.2,72.2,29.86,North,0,0.9,0.9,90,0.00,,,0.00,WUHU216HW,2013-07-24 04:49:00,
2013-07-24 00:54:00,75.2,72.2,29.86,North,0,0.0,0.9,90,0.00,,,0.00,WUHU216HW,2013-07-24 04:54:00,
2013-07-24 00:59:00,75.2,72.2,29.86,North,0,0.4,0.4,90,0.00,,,0.00,WUHU216HW,2013-07-24 04:59:00,
2013-07-24 01:04:00,75.2,72.2,29.86,North,0,0.0,0.7,90,0.00,,,0.00,WUHU216HW,2013-07-24 05:04:00,
2013-07-24 01:09:00,75.4,72.4,29.86,North,0,0.0,0.7,90,0.00,,,0.00,WUHU216HW,2013-07-24 05:09:00,
2013-07-24 01:14:00,75.4,72.4,29.87,North,0,0.0,0.0,90,0.00,,,0.00,WUHU216HW,2013-07-24 05:14:00,
2013-07-24 01:19:00,75.6,72.8,29.87,WNW,293,0.0,0.0,91,0.00,,,0.00,WUHU216HW,2013-07-24 05:19:00,
2013-07-24 01:24:00,75.6,72.8,29.86,WNW,293,0.0,0.0,91,0.00,,,0.00,WUHU216HW,2013-07-24 05:24:00,
2013-07-24 01:29:00,75.6,72.8,29.86,WNW,293,0.0,0.0,91,0.00,,,0.00,WUHU216HW,2013-07-24 05:29:00,
2013-07-24 01:34:00,75.6,72.8,29.86,WNW,293,0.0,0.0,91,0.00,,,0.00,WUHU216HW,2013-07-24 05:34:00,
2013-07-24 01:39:00,75.6,72.8,29.86,WNW,293,0.0,0.0,91,0.00,,,0.00,WUHU216HW,2013-07-24 05:39:00,
2013-07-24 01:44:00,75.8,73.4,29.86,WNW,293,0.0,0.0,92,0.00,,,0.00,WUHU216HW,2013-07-24 05:44:00,
2013-07-24 01:49:00,75.8,73.4,29.86,WNW,293,0.0,0.0,92,0.00,,,0.00,WUHU216HW,2013-07-24 05:49:00,
2013-07-24 01:54:00,75.8,73.4,29.86,WNW,293,0.0,0.0,92,0.00,,,0.00,WUHU216HW,2013-07-24 05:54:00,
2013-07-24 01:59:00,76.0,73.5,29.86,WNW,293,0.0,0.0,92,0.00,,,0.00,WUHU216HW,2013-07-24 05:59:00,
2013-07-24 02:04:00,76.0,73.5,29.86,WNW,293,0.0,0.0,92,0.00,,,0.00,WUHU216HW,2013-07-24 06:04:00,
2013-07-24 02:09:00,76.0,73.5,29.86,WNW,293,0.0,0.0,92,0.00,,,0.00,WUHU216HW,2013-07-24 06:09:00,
2013-07-24 02:14:00,75.8,73.4,29.86,WNW,293,0.0,0.0,92,0.00,,,0.00,WUHU216HW,2013-07-24 06:14:00,
2013-07-24 02:19:00,76.0,73.5,29.86,WNW,293,0.0,0.0,92,0.00,,,0.00,WUHU216HW,2013-07-24 06:19:00,
2013-07-24 02:24:00,76.0,73.5,29.86,WNW,293,0.0,0.0,92,0.00,,,0.00,WUHU216HW,2013-07-24 06:24:00,
2013-07-24 02:29:00,76.0,73.5,29.85,West,270,1.1,1.1,92,0.00,,,0.00,WUHU216HW,2013-07-24 06:29:00,
2013-07-24 02:34:00,76.0,73.8,29.85,NNW,338,1.1,1.8,93,0.00,,,0.00,WUHU216HW,2013-07-24 06:34:00,
2013-07-24 02:39:00,76.0,73.8,29.85,West,270,0.9,3.1,93,0.00,,,0.00,WUHU216HW,2013-07-24 06:39:00,
2013-07-24 02:44:00,76.1,74.0,29.85,NNW,338,0.4,3.1,93,0.00,,,0.00,WUHU216HW,2013-07-24 06:44:00,
2013-07-24 02:49:00,76.1,73.7,29.85,NW,315,0.4,2.5,92,0.00,,,0.00,WUHU216HW,2013-07-24 06:49:00,
2013-07-24 02:54:00,76.1,73.7,29.85,WSW,248,2.9,3.1,92,0.00,,,0.00,WUHU216HW,2013-07-24 06:54:00,
2013-07-24 02:59:00,76.1,73.7,29.85,West,270,1.6,3.1,92,0.00,,,0.00,WUHU216HW,2013-07-24 06:59:00,
2013-07-24 03:04:00,76.0,73.5,29.85,West,270,0.9,2.5,92,0.00,,,0.00,WUHU216HW,2013-07-24 07:04:00,
2013-07-24 03:09:00,76.0,73.5,29.85,WNW,293,0.4,2.5,92,0.00,,,0.00,WUHU216HW,2013-07-24 07:09:00,
2013-07-24 03:14:00,76.0,73.5,29.85,WSW,248,1.1,2.5,92,0.00,,,0.00,WUHU216HW,2013-07-24 07:14:00,
2013-07-24 03:19:00,76.0,73.5,29.84,WSW,248,1.3,2.5,92,0.00,,,0.00,WUHU216HW,2013-07-24 07:19:00,
2013-07-24 03:24:00,75.8,73.4,29.84,West,270,1.1,2.0,92,0.00,,,0.00,WUHU216HW,2013-07-24 07:24:00,
2013-07-24 03:29:00,75.8,73.4,29.84,WSW,248,0.9,2.2,92,0.00,,,0.00,WUHU216HW,2013-07-24 07:29:00,
2013-07-24 03:34:00,75.8,73.4,29.84,WSW,248,0.2,2.2,92,0.00,,,0.00,WUHU216HW,2013-07-24 07:34:00,
2013-07-24 03:39:00,75.6,73.2,29.84,WSW,248,2.2,2.5,92,0.00,,,0.00,WUHU216HW,2013-07-24 07:39:00,
2013-07-24 03:44:00,75.6,73.2,29.84,WSW,248,2.0,2.5,92,0.00,,,0.00,WUHU216HW,2013-07-24 07:44:00,
2013-07-24 03:49:00,75.6,73.2,29.84,WSW,248,1.1,2.2,92,0.00,,,0.00,WUHU216HW,2013-07-24 07:49:00,
2013-07-24 03:54:00,75.6,73.2,29.84,WSW,248,1.8,2.2,92,0.00,,,0.00,WUHU216HW,2013-07-24 07:54:00,
2013-07-24 03:59:00,75.2,72.8,29.84,WSW,248,2.0,3.4,92,0.00,,,0.00,WUHU216HW,2013-07-24 07:59:00,
2013-07-24 04:04:00,75.2,72.8,29.84,NNW,338,1.3,3.4,92,0.00,,,0.00,WUHU216HW,2013-07-24 08:04:00,
2013-07-24 04:09:00,75.1,72.6,29.84,West,270,0.9,3.8,92,0.00,,,0.00,WUHU216HW,2013-07-24 08:09:00,
2013-07-24 04:14:00,74.9,72.1,29.84,WSW,248,4.5,4.5,91,0.00,,,0.00,WUHU216HW,2013-07-24 08:14:00,
2013-07-24 04:19:00,74.7,71.9,29.84,SW,225,1.3,4.5,91,0.00,,,0.00,WUHU216HW,2013-07-24 08:19:00,
2013-07-24 04:24:00,74.5,71.7,29.85,West,270,1.1,3.8,91,0.00,,,0.00,WUHU216HW,2013-07-24 08:24:00,
2013-07-24 04:29:00,74.5,71.7,29.85,West,270,1.8,3.8,91,0.00,,,0.00,WUHU216HW,2013-07-24 08:29:00,
2013-07-24 04:34:00,74.5,71.7,29.85,West,270,2.2,3.4,91,0.00,,,0.00,WUHU216HW,2013-07-24 08:34:00,
2013-07-24 04:39:00,74.3,71.6,29.85,West,270,2.0,3.4,91,0.00,,,0.00,WUHU216HW,2013-07-24 08:39:00,
2013-07-24 04:44:00,74.2,71.4,29.85,WNW,293,3.4,3.4,91,0.00,,,0.00,WUHU216HW,2013-07-24 08:44:00,
2013-07-24 04:49:00,74.2,71.4,29.85,WSW,248,1.8,3.4,91,0.00,,,0.00,WUHU216HW,2013-07-24 08:49:00,
2013-07-24 04:54:00,74.0,71.2,29.85,WNW,293,0.4,3.4,91,0.00,,,0.00,WUHU216HW,2013-07-24 08:54:00,
2013-07-24 04:59:00,74.0,71.2,29.85,SW,225,1.1,3.4,91,0.00,,,0.00,WUHU216HW,2013-07-24 08:59:00,
2013-07-24 05:04:00,74.0,71.6,29.85,WNW,293,2.5,2.5,92,0.00,,,0.00,WUHU216HW,2013-07-24 09:04:00,
2013-07-24 05:09:00,74.0,71.6,29.85,WSW,248,1.8,4.0,92,0.00,,,0.00,WUHU216HW,2013-07-24 09:09:00,
2013-07-24 05:14:00,73.8,71.4,29.85,West,270,1.3,4.0,92,0.00,,,0.00,WUHU216HW,2013-07-24 09:14:00,
2013-07-24 05:19:00,73.8,71.4,29.85,West,270,0.4,2.2,92,0.00,,,0.00,WUHU216HW,2013-07-24 09:19:00,
2013-07-24 05:24:00,73.8,71.4,29.85,West,270,3.6,3.6,92,0.00,,,0.00,WUHU216HW,2013-07-24 09:24:00,
2013-07-24 05:29:00,73.8,71.4,29.85,WSW,248,1.6,3.6,92,0.00,,,0.00,WUHU216HW,2013-07-24 09:29:00,
2013-07-24 05:34:00,73.8,71.4,29.85,WSW,248,1.1,4.0,92,0.00,,,0.00,WUHU216HW,2013-07-24 09:34:00,
2013-07-24 05:39:00,73.6,71.2,29.85,WNW,293,0.9,4.0,92,0.00,,,0.00,WUHU216HW,2013-07-24 09:39:00,
2013-07-24 05:44:00,73.6,71.2,29.85,WSW,248,0.0,2.7,92,0.00,,,0.00,WUHU216HW,2013-07-24 09:44:00,
2013-07-24 05:49:00,73.4,71.0,29.85,WSW,248,1.8,1.8,92,0.00,,,0.00,WUHU216HW,2013-07-24 09:49:00,
2013-07-24 05:54:00,73.4,71.0,29.85,WSW,248,1.8,2.9,92,0.00,,,0.00,WUHU216HW,2013-07-24 09:54:00,
2013-07-24 05:59:00,73.3,70.8,29.85,WSW,248,1.6,2.9,92,0.00,,,0.00,WUHU216HW,2013-07-24 09:59:00,
2013-07-24 06:04:00,73.3,70.8,29.85,West,270,0.4,2.5,92,0.00,,,0.00,WUHU216HW,2013-07-24 10:04:00,
2013-07-24 06:09:00,73.3,70.8,29.86,SW,225,0.4,2.5,92,0.00,,,0.00,WUHU216HW,2013-07-24 10:09:00,
2013-07-24 06:14:00,73.1,70.3,29.86,WSW,248,1.3,3.4,91,0.00,,,0.00,WUHU216HW,2013-07-24 10:14:00,
2013-07-24 06:19:00,73.1,70.3,29.86,NW,315,0.4,3.4,91,0.00,,,0.00,WUHU216HW,2013-07-24 10:19:00,
2013-07-24 06:24:00,73.1,70.3,29.86,West,270,0.4,2.7,91,0.00,,,0.00,WUHU216HW,2013-07-24 10:24:00,
2013-07-24 06:29:00,73.1,70.3,29.86,WSW,248,0.7,2.2,91,0.00,,,0.00,WUHU216HW,2013-07-24 10:29:00,
2013-07-24 06:34:00,72.9,70.1,29.86,WSW,248,0.4,2.2,91,0.00,,,0.00,WUHU216HW,2013-07-24 10:34:00,
2013-07-24 06:39:00,72.9,70.1,29.86,West,270,0.7,2.0,91,0.00,,,0.00,WUHU216HW,2013-07-24 10:39:00,
2013-07-24 06:44:00,72.9,70.1,29.86,West,270,1.8,1.8,91,0.00,,,0.00,WUHU216HW,2013-07-24 10:44:00,
2013-07-24 06:49:00,72.9,70.1,29.86,SW,225,0.7,4.3,91,0.00,,,0.00,WUHU216HW,2013-07-24 10:49:00,
2013-07-24 06:54:00,72.9,70.1,29.86,West,270,0.4,4.3,91,0.00,,,0.00,WUHU216HW,2013-07-24 10:54:00,
2013-07-24 06:59:00,72.9,70.1,29.87,WNW,293,0.2,2.9,91,0.00,,,0.00,WUHU216HW,2013-07-24 10:59:00,
2013-07-24 07:04:00,72.9,70.1,29.87,WSW,248,3.6,3.6,91,0.00,,,0.00,WUHU216HW,2013-07-24 11:04:00,
2013-07-24 07:09:00,72.9,70.1,29.87,West,270,0.7,3.6,91,0.00,,,0.00,WUHU216HW,2013-07-24 11:09:00,
2013-07-24 07:14:00,72.9,70.1,29.87,WSW,248,1.8,3.4,91,0.00,,,0.00,WUHU216HW,2013-07-24 11:14:00,
2013-07-24 07:19:00,72.7,69.9,29.87,West,270,1.8,2.2,91,0.00,,,0.00,WUHU216HW,2013-07-24 11:19:00,
2013-07-24 07:24:00,72.9,70.1,29.87,NNW,338,0.7,2.7,91,0.00,,,0.00,WUHU216HW,2013-07-24 11:24:00,
2013-07-24 07:29:00,72.7,69.9,29.87,West,270,0.2,2.7,91,0.00,,,0.00,WUHU216HW,2013-07-24 11:29:00,
2013-07-24 07:34:00,72.7,69.9,29.87,WSW,248,1.1,1.1,91,0.00,,,0.00,WUHU216HW,2013-07-24 11:34:00,
2013-07-24 07:39:00,72.9,70.1,29.87,NW,315,0.2,1.8,91,0.00,,,0.00,WUHU216HW,2013-07-24 11:39:00,
2013-07-24 07:44:00,72.9,70.1,29.87,WNW,293,0.4,1.8,91,0.00,,,0.00,WUHU216HW,2013-07-24 11:44:00,
2013-07-24 07:49:00,72.9,69.8,29.87,WNW,293,0.0,2.5,90,0.00,,,0.00,WUHU216HW,2013-07-24 11:49:00,
2013-07-24 07:54:00,73.1,70.0,29.87,WNW,293,0.4,2.5,90,0.00,,,0.00,WUHU216HW,2013-07-24 11:54:00,
2013-07-24 07:59:00,73.1,70.0,29.87,WSW,248,1.3,1.8,90,0.00,,,0.00,WUHU216HW,2013-07-24 11:59:00,
2013-07-24 08:05:00,73.4,70.7,29.87,WSW,248,2.5,2.5,91,0.00,,,0.00,WUHU216HW,2013-07-24 12:05:00,
2013-07-24 08:10:00,73.6,70.8,29.88,SSW,203,2.7,3.4,91,0.00,,,0.00,WUHU216HW,2013-07-24 12:10:00,
2013-07-24 08:15:00,73.8,71.0,29.87,WSW,248,0.4,3.4,91,0.00,,,0.00,WUHU216HW,2013-07-24 12:15:00,
2013-07-24 08:20:00,73.8,71.0,29.88,WSW,248,1.1,2.5,91,0.00,,,0.00,WUHU216HW,2013-07-24 12:20:00,
2013-07-24 08:25:00,74.0,70.9,29.88,WSW,248,2.9,2.9,90,0.00,,,0.00,WUHU216HW,2013-07-24 12:25:00,
2013-07-24 08:30:00,74.2,71.1,29.88,NNW,338,1.6,2.9,90,0.00,,,0.00,WUHU216HW,2013-07-24 12:30:00,
2013-07-24 08:35:00,74.3,71.3,29.88,WNW,293,4.7,4.7,90,0.00,,,0.00,WUHU216HW,2013-07-24 12:35:00,
2013-07-24 08:40:00,74.3,70.9,29.88,WSW,248,3.8,4.7,89,0.00,,,0.00,WUHU216HW,2013-07-24 12:40:00,
2013-07-24 08:45:00,74.5,71.1,29.88,NW,315,1.3,4.9,89,0.00,,,0.00,WUHU216HW,2013-07-24 12:45:00,
2013-07-24 08:50:00,74.9,71.5,29.88,WNW,293,2.0,4.9,89,0.00,,,0.00,WUHU216HW,2013-07-24 12:50:00,
2013-07-24 08:55:00,75.2,71.5,29.88,NW,315,1.6,3.1,88,0.00,,,0.00,WUHU216HW,2013-07-24 12:55:00,
2013-07-24 09:00:00,75.4,71.0,29.88,WNW,293,1.1,5.8,86,0.00,,,0.00,WUHU216HW,2013-07-24 13:00:00,
2013-07-24 09:05:00,75.2,70.8,29.88,WSW,248,1.6,5.8,86,0.00,,,0.00,WUHU216HW,2013-07-24 13:05:00,
2013-07-24 09:10:00,75.4,71.0,29.88,WSW,248,1.1,3.4,86,0.00,,,0.00,WUHU216HW,2013-07-24 13:10:00,
2013-07-24 09:15:00,75.6,71.2,29.88,West,270,1.6,3.4,86,0.00,,,0.00,WUHU216HW,2013-07-24 13:15:00,
2013-07-24 09:20:00,75.6,71.2,29.88,NNW,338,1.8,3.4,86,0.00,,,0.00,WUHU216HW,2013-07-24 13:20:00,
2013-07-24 09:25:00,76.0,71.5,29.88,SW,225,1.3,4.3,86,0.00,,,0.00,WUHU216HW,2013-07-24 13:25:00,
2013-07-24 09:30:00,76.1,71.3,29.88,SSW,203,1.1,6.3,85,0.00,,,0.00,WUHU216HW,2013-07-24 13:30:00,
2013-07-24 09:35:00,76.1,71.0,29.88,WSW,248,0.4,6.3,84,0.00,,,0.00,WUHU216HW,2013-07-24 13:35:00,
2013-07-24 09:40:00,76.3,71.5,29.88,WSW,248,4.0,4.0,85,0.00,,,0.00,WUHU216HW,2013-07-24 13:40:00,
2013-07-24 09:45:00,76.3,71.5,29.88,West,270,1.3,4.0,85,0.00,,,0.00,WUHU216HW,2013-07-24 13:45:00,
2013-07-24 09:50:00,76.5,71.3,29.88,West,270,1.1,2.2,84,0.00,,,0.00,WUHU216HW,2013-07-24 13:50:00,
2013-07-24 09:55:00,76.9,72.0,29.88,West,270,2.9,2.9,85,0.00,,,0.00,WUHU216HW,2013-07-24 13:55:00,
2013-07-24 10:00:00,77.2,72.0,29.88,NW,315,1.1,3.1,84,0.00,,,0.00,WUHU216HW,2013-07-24 14:00:00,
2013-07-24 10:05:00,77.4,71.8,29.88,WNW,293,1.1,3.1,83,0.00,,,0.00,WUHU216HW,2013-07-24 14:05:00,
2013-07-24 10:10:00,77.4,71.8,29.88,WSW,248,2.2,2.5,83,0.00,,,0.00,WUHU216HW,2013-07-24 14:10:00,
2013-07-24 10:15:00,77.6,71.6,29.88,West,270,2.0,3.1,82,0.00,,,0.00,WUHU216HW,2013-07-24 14:15:00,
2013-07-24 10:20:00,77.6,71.6,29.88,NNW,338,0.4,3.1,82,0.00,,,0.00,WUHU216HW,2013-07-24 14:20:00,
2013-07-24 10:25:00,77.8,71.8,29.89,West,270,2.5,2.5,82,0.00,,,0.00,WUHU216HW,2013-07-24 14:25:00,
2013-07-24 10:30:00,77.9,72.0,29.88,WSW,248,3.4,3.4,82,0.00,,,0.00,WUHU216HW,2013-07-24 14:30:00,
2013-07-24 10:35:00,78.3,72.0,29.88,SW,225,1.1,4.0,81,0.00,,,0.00,WUHU216HW,2013-07-24 14:35:00,
2013-07-24 10:40:00,78.5,72.2,29.88,North,0,1.8,4.0,81,0.00,,,0.00,WUHU216HW,2013-07-24 14:40:00,
2013-07-24 10:45:00,78.7,72.4,29.88,NNE,23,0.0,2.0,81,0.00,,,0.00,WUHU216HW,2013-07-24 14:45:00,
2013-07-24 10:50:00,79.0,72.4,29.88,ESE,113,0.4,2.0,80,0.00,,,0.00,WUHU216HW,2013-07-24 14:50:00,
2013-07-24 10:55:00,79.2,72.9,29.88,West,270,2.9,2.9,81,0.00,,,0.00,WUHU216HW,2013-07-24 14:55:00,
2013-07-24 11:00:00,79.0,72.4,29.88,SW,225,1.8,2.9,80,0.00,,,0.00,WUHU216HW,2013-07-24 15:00:00,
2013-07-24 11:05:00,79.0,72.0,29.88,WSW,248,0.9,2.7,79,0.00,,,0.00,WUHU216HW,2013-07-24 15:05:00,
2013-07-24 11:10:00,79.2,72.2,29.88,SSW,203,0.7,2.7,79,0.00,,,0.00,WUHU216HW,2013-07-24 15:10:00,
2013-07-24 11:15:00,79.4,71.9,29.87,West,270,1.3,2.9,78,0.00,,,0.00,WUHU216HW,2013-07-24 15:15:00,
2013-07-24 11:20:00,79.6,72.1,29.87,SSW,203,4.0,4.0,78,0.00,,,0.00,WUHU216HW,2013-07-24 15:20:00,
2013-07-24 11:25:00,79.9,72.5,29.87,NW,315,0.9,4.3,78,0.00,,,0.00,WUHU216HW,2013-07-24 15:25:00,
2013-07-24 11:30:00,80.3,72.8,29.87,NNW,338,0.4,4.3,78,0.00,,,0.00,WUHU216HW,2013-07-24 15:30:00,
2013-07-24 11:35:00,80.5,73.0,29.88,East,90,0.7,2.2,78,0.00,,,0.00,WUHU216HW,2013-07-24 15:35:00,
2013-07-24 11:40:00,80.6,72.8,29.88,WSW,248,3.1,3.4,77,0.00,,,0.00,WUHU216HW,2013-07-24 15:40:00,
2013-07-24 11:45:00,80.6,73.2,29.88,SW,225,0.0,3.4,78,0.00,,,0.00,WUHU216HW,2013-07-24 15:45:00,
2013-07-24 11:50:00,81.2,73.7,29.88,West,270,1.1,1.3,78,0.00,,,0.00,WUHU216HW,2013-07-24 15:50:00,
2013-07-24 11:55:00,82.1,74.6,29.88,NNW,338,1.1,1.8,78,0.00,,,0.00,WUHU216HW,2013-07-24 15:55:00,
2013-07-24 12:00:00,82.6,74.3,29.88,WNW,293,0.9,2.5,76,0.00,,,0.00,WUHU216HW,2013-07-24 16:00:00,
2013-07-24 12:05:00,83.2,74.8,29.88,NNW,338,1.3,4.0,76,0.00,,,0.00,WUHU216HW,2013-07-24 16:05:00,
2013-07-24 12:10:00,83.7,74.5,29.88,West,270,2.0,4.0,74,0.00,,,0.00,WUHU216HW,2013-07-24 16:10:00,
2013-07-24 12:15:00,83.5,74.4,29.88,North,0,0.4,3.6,74,0.00,,,0.00,WUHU216HW,2013-07-24 16:15:00,
2013-07-24 12:20:00,83.3,74.6,29.88,NW,315,0.4,3.4,75,0.00,,,0.00,WUHU216HW,2013-07-24 16:20:00,
2013-07-24 12:25:00,83.2,74.4,29.88,WSW,248,2.2,2.7,75,0.00,,,0.00,WUHU216HW,2013-07-24 16:25:00,
2013-07-24 12:30:00,82.4,72.9,29.88,WSW,248,2.7,3.8,73,0.00,,,0.00,WUHU216HW,2013-07-24 16:30:00,
2013-07-24 12:35:00,81.9,72.4,29.88,NNW,338,1.1,4.0,73,0.00,,,0.00,WUHU216HW,2013-07-24 16:35:00,
2013-07-24 12:40:00,82.1,73.4,29.87,North,0,0.7,4.0,75,0.00,,,0.00,WUHU216HW,2013-07-24 16:40:00,
2013-07-24 12:45:00,82.4,73.7,29.87,West,270,2.7,2.9,75,0.00,,,0.00,WUHU216HW,2013-07-24 16:45:00,
2013-07-24 12:50:00,82.4,73.7,29.87,West,270,1.1,3.8,75,0.00,,,0.00,WUHU216HW,2013-07-24 16:50:00,
2013-07-24 12:55:00,82.3,73.2,29.87,WSW,248,5.6,5.6,74,0.00,,,0.00,WUHU216HW,2013-07-24 16:55:00,
2013-07-24 13:00:00,81.7,72.2,29.87,NNW,338,1.3,5.6,73,0.00,,,0.00,WUHU216HW,2013-07-24 17:00:00,
2013-07-24 13:05:00,81.9,72.8,29.87,WSW,248,0.4,4.7,74,0.00,,,0.00,WUHU216HW,2013-07-24 17:05:00,
2013-07-24 13:10:00,82.1,73.4,29.87,NNW,338,0.4,4.7,75,0.00,,,0.00,WUHU216HW,2013-07-24 17:10:00,
2013-07-24 13:15:00,82.3,73.5,29.87,WSW,248,3.4,4.3,75,0.00,,,0.00,WUHU216HW,2013-07-24 17:15:00,
2013-07-24 13:20:00,82.4,73.7,29.87,WNW,293,3.6,3.6,75,0.00,,,0.00,WUHU216HW,2013-07-24 17:20:00,
2013-07-24 13:25:00,82.4,73.7,29.87,NNE,23,0.4,4.0,75,0.00,,,0.00,WUHU216HW,2013-07-24 17:25:00,
2013-07-24 13:30:00,82.8,74.1,29.87,NW,315,1.8,4.0,75,0.00,,,0.00,WUHU216HW,2013-07-24 17:30:00,
2013-07-24 13:35:00,83.0,73.5,29.87,West,270,2.5,3.1,73,0.00,,,0.00,WUHU216HW,2013-07-24 17:35:00,
2013-07-24 13:40:00,83.2,73.6,29.86,NE,45,1.1,6.3,73,0.00,,,0.00,WUHU216HW,2013-07-24 17:40:00,
2013-07-24 13:45:00,83.7,74.5,29.86,NW,315,2.5,6.3,74,0.00,,,0.00,WUHU216HW,2013-07-24 17:45:00,
2013-07-24 13:50:00,84.4,74.4,29.86,West,270,2.5,4.9,72,0.00,,,0.00,WUHU216HW,2013-07-24 17:50:00,
2013-07-24 13:55:00,85.0,75.3,29.86,WSW,248,2.9,4.9,73,0.00,,,0.00,WUHU216HW,2013-07-24 17:55:00,
2013-07-24 14:00:00,85.9,75.9,29.85,North,0,3.1,3.1,72,0.00,,,0.00,WUHU216HW,2013-07-24 18:00:00,
2013-07-24 14:05:00,86.4,75.6,29.85,WSW,248,2.2,3.4,70,0.00,,,0.00,WUHU216HW,2013-07-24 18:05:00,
2013-07-24 14:10:00,86.4,75.1,29.85,WSW,248,3.6,4.7,69,0.00,,,0.00,WUHU216HW,2013-07-24 18:10:00,
2013-07-24 14:15:00,86.0,75.6,29.85,West,270,4.0,4.7,71,0.00,,,0.00,WUHU216HW,2013-07-24 18:15:00,
2013-07-24 14:20:00,86.8,76.3,29.85,WSW,248,3.6,4.5,71,0.00,,,0.00,WUHU216HW,2013-07-24 18:20:00,
2013-07-24 14:25:00,86.8,76.3,29.85,WSW,248,2.5,4.5,71,0.00,,,0.00,WUHU216HW,2013-07-24 18:25:00,
2013-07-24 14:30:00,87.5,76.1,29.85,North,0,1.8,3.8,69,0.00,,,0.00,WUHU216HW,2013-07-24 18:30:00,
2013-07-24 14:35:00,88.0,77.0,29.85,WSW,248,3.6,3.6,70,0.00,,,0.00,WUHU216HW,2013-07-24 18:35:00,
2013-07-24 14:40:00,88.4,77.4,29.85,WSW,248,1.3,3.6,70,0.00,,,0.00,WUHU216HW,2013-07-24 18:40:00,
2013-07-24 14:45:00,88.9,76.6,29.85,West,270,1.8,4.3,67,0.00,,,0.00,WUHU216HW,2013-07-24 18:45:00,
2013-07-24 14:50:00,88.4,75.6,29.84,WNW,293,1.6,4.3,66,0.00,,,0.00,WUHU216HW,2013-07-24 18:50:00,
2013-07-24 14:55:00,88.2,75.9,29.84,North,0,1.1,3.8,67,0.00,,,0.00,WUHU216HW,2013-07-24 18:55:00,
2013-07-24 15:00:00,88.0,75.7,29.84,SSW,203,4.0,4.3,67,0.00,,,0.00,WUHU216HW,2013-07-24 19:00:00,
2013-07-24 15:05:00,88.0,75.7,29.84,WSW,248,4.3,4.3,67,0.00,,,0.00,WUHU216HW,2013-07-24 19:05:00,
2013-07-24 15:10:00,88.0,75.7,29.84,WSW,248,3.4,4.3,67,0.00,,,0.00,WUHU216HW,2013-07-24 19:10:00,
2013-07-24 15:15:00,88.0,75.7,29.84,NNE,23,1.3,4.5,67,0.00,,,0.00,WUHU216HW,2013-07-24 19:15:00,
2013-07-24 15:20:00,88.4,76.1,29.83,WSW,248,0.4,4.5,67,0.00,,,0.00,WUHU216HW,2013-07-24 19:20:00,
2013-07-24 15:25:00,89.1,77.2,29.83,North,0,1.8,3.8,68,0.00,,,0.00,WUHU216HW,2013-07-24 19:25:00,
2013-07-24 15:30:00,89.6,77.2,29.82,WSW,248,2.9,3.1,67,0.00,,,0.00,WUHU216HW,2013-07-24 19:30:00,
2013-07-24 15:35:00,89.6,76.8,29.82,West,270,3.4,4.9,66,0.00,,,0.00,WUHU216HW,2013-07-24 19:35:00,
2013-07-24 15:40:00,89.3,77.0,29.82,WSW,248,2.5,4.9,67,0.00,,,0.00,WUHU216HW,2013-07-24 19:40:00,
2013-07-24 15:45:00,88.9,76.6,29.82,North,0,2.5,2.9,67,0.00,,,0.00,WUHU216HW,2013-07-24 19:45:00,
2013-07-24 15:50:00,88.9,77.1,29.82,West,270,1.1,2.5,68,0.00,,,0.00,WUHU216HW,2013-07-24 19:50:00,
2013-07-24 15:55:00,88.7,76.9,29.82,NNW,338,2.0,2.0,68,0.00,,,0.00,WUHU216HW,2013-07-24 19:55:00,
2013-07-24 16:00:00,88.6,76.2,29.82,WSW,248,3.4,3.6,67,0.00,,,0.00,WUHU216HW,2013-07-24 20:00:00,
2013-07-24 16:05:00,88.4,76.5,29.82,WSW,248,2.9,3.6,68,0.00,,,0.00,WUHU216HW,2013-07-24 20:05:00,
2013-07-24 16:10:00,88.7,76.9,29.82,West,270,3.6,3.6,68,0.00,,,0.00,WUHU216HW,2013-07-24 20:10:00,
2013-07-24 16:15:00,88.6,75.8,29.82,WSW,248,2.5,3.6,66,0.00,,,0.00,WUHU216HW,2013-07-24 20:15:00,
2013-07-24 16:20:00,88.9,76.6,29.81,NNW,338,1.3,3.6,67,0.00,,,0.00,WUHU216HW,2013-07-24 20:20:00,
2013-07-24 16:25:00,89.3,77.0,29.81,SSE,158,0.7,2.5,67,0.00,,,0.00,WUHU216HW,2013-07-24 20:25:00,
2013-07-24 16:30:00,88.9,76.6,29.81,WSW,248,3.4,3.4,67,0.00,,,0.00,WUHU216HW,2013-07-24 20:30:00,
2013-07-24 16:35:00,88.7,76.4,29.80,WSW,248,3.4,3.4,67,0.00,,,0.00,WUHU216HW,2013-07-24 20:35:00,
2013-07-24 16:40:00,88.7,76.0,29.80,WSW,248,3.8,4.0,66,0.00,,,0.00,WUHU216HW,2013-07-24 20:40:00,
2013-07-24 16:45:00,88.6,74.9,29.80,West,270,1.1,5.4,64,0.00,,,0.00,WUHU216HW,2013-07-24 20:45:00,
2013-07-24 16:50:00,88.6,75.3,29.80,South,180,1.3,5.4,65,0.00,,,0.00,WUHU216HW,2013-07-24 20:50:00,
2013-07-24 16:55:00,88.9,75.6,29.79,WNW,293,0.4,4.7,65,0.00,,,0.00,WUHU216HW,2013-07-24 20:55:00,
2013-07-24 17:00:00,88.9,75.6,29.80,NNW,338,1.8,2.7,65,0.00,,,0.00,WUHU216HW,2013-07-24 21:00:00,
2013-07-24 17:05:00,88.7,76.0,29.80,WSW,248,3.4,3.4,66,0.00,,,0.00,WUHU216HW,2013-07-24 21:05:00,
2013-07-24 17:10:00,88.6,75.3,29.79,NNE,23,0.4,3.4,65,0.00,,,0.00,WUHU216HW,2013-07-24 21:10:00,
2013-07-24 17:15:00,88.4,75.2,29.79,WSW,248,3.4,3.4,65,0.00,,,0.00,WUHU216HW,2013-07-24 21:15:00,
2013-07-24 17:20:00,88.4,75.2,29.79,ENE,68,0.4,3.4,65,0.00,,,0.00,WUHU216HW,2013-07-24 21:20:00,
2013-07-24 17:25:00,88.2,75.0,29.79,WSW,248,1.8,2.5,65,0.00,,,0.00,WUHU216HW,2013-07-24 21:25:00,
2013-07-24 17:30:00,88.2,75.4,29.79,WSW,248,0.9,2.2,66,0.00,,,0.00,WUHU216HW,2013-07-24 21:30:00,
2013-07-24 17:35:00,88.0,75.3,29.80,WNW,293,1.8,2.2,66,0.00,,,0.00,WUHU216HW,2013-07-24 21:35:00,
2013-07-24 17:40:00,87.8,74.6,29.80,WSW,248,1.3,3.6,65,0.00,,,0.00,WUHU216HW,2013-07-24 21:40:00,
2013-07-24 17:45:00,87.8,74.6,29.80,SW,225,1.8,3.6,65,0.00,,,0.00,WUHU216HW,2013-07-24 21:45:00,
2013-07-24 17:50:00,87.8,74.6,29.80,WSW,248,1.8,3.4,65,0.00,,,0.00,WUHU216HW,2013-07-24 21:50:00,
2013-07-24 17:55:00,87.8,75.1,29.80,WSW,248,1.3,3.8,66,0.00,,,0.00,WUHU216HW,2013-07-24 21:55:00,
2013-07-24 18:00:00,87.8,75.1,29.80,West,270,4.0,4.0,66,0.00,,,0.00,WUHU216HW,2013-07-24 22:00:00,
2013-07-24 18:05:00,87.8,74.2,29.80,West,270,0.9,4.0,64,0.00,,,0.00,WUHU216HW,2013-07-24 22:05:00,
2013-07-24 18:10:00,87.8,74.6,29.80,North,0,0.9,2.9,65,0.00,,,0.00,WUHU216HW,2013-07-24 22:10:00,
2013-07-24 18:15:00,87.8,75.1,29.80,West,270,3.4,3.4,66,0.00,,,0.00,WUHU216HW,2013-07-24 22:15:00,
2013-07-24 18:20:00,87.7,74.9,29.80,WSW,248,1.1,3.4,66,0.00,,,0.00,WUHU216HW,2013-07-24 22:20:00,
2013-07-24 18:25:00,87.8,75.5,29.80,WSW,248,2.9,2.9,67,0.00,,,0.00,WUHU216HW,2013-07-24 22:25:00,
2013-07-24 18:30:00,87.7,74.9,29.82,SW,225,1.3,3.4,66,0.00,,,0.00,WUHU216HW,2013-07-24 22:30:00,
2013-07-24 18:35:00,87.7,74.9,29.81,West,270,2.7,3.4,66,0.00,,,0.00,WUHU216HW,2013-07-24 22:35:00,
2013-07-24 18:40:00,87.5,74.7,29.81,West,270,0.4,2.7,66,0.00,,,0.00,WUHU216HW,2013-07-24 22:40:00,
2013-07-24 18:45:00,87.1,74.9,29.81,SW,225,3.4,3.4,67,0.00,,,0.00,WUHU216HW,2013-07-24 22:45:00,
2013-07-24 18:50:00,87.1,74.9,29.82,SW,225,1.8,3.4,67,0.00,,,0.00,WUHU216HW,2013-07-24 22:50:00,
2013-07-24 18:55:00,86.9,74.7,29.82,NNW,338,1.6,3.8,67,0.00,,,0.00,WUHU216HW,2013-07-24 22:55:00,
2013-07-24 19:00:00,86.8,74.5,29.81,WSW,248,0.9,4.0,67,0.00,,,0.00,WUHU216HW,2013-07-24 23:00:00,
2013-07-24 19:05:00,86.8,74.5,29.82,NW,315,0.7,4.0,67,0.00,,,0.00,WUHU216HW,2013-07-24 23:05:00,
2013-07-24 19:10:00,86.8,74.5,29.82,NW,315,0.4,1.8,67,0.00,,,0.00,WUHU216HW,2013-07-24 23:10:00,
2013-07-24 19:15:00,86.6,74.8,29.81,West,270,0.7,0.7,68,0.00,,,0.00,WUHU216HW,2013-07-24 23:15:00,
2013-07-24 19:20:00,86.4,75.1,29.82,WSW,248,0.9,2.5,69,0.00,,,0.00,WUHU216HW,2013-07-24 23:20:00,
2013-07-24 19:25:00,86.2,75.0,29.82,West,270,0.0,2.5,69,0.00,,,0.00,WUHU216HW,2013-07-24 23:25:00,
2013-07-24 19:30:00,85.9,75.1,29.82,West,270,0.0,1.1,70,0.00,,,0.00,WUHU216HW,2013-07-24 23:30:00,
2013-07-24 19:35:00,85.7,74.9,29.82,West,270,0.0,0.0,70,0.00,,,0.00,WUHU216HW,2013-07-24 23:35:00,
2013-07-24 19:40:00,85.5,75.1,29.82,West,270,0.0,0.0,71,0.00,,,0.00,WUHU216HW,2013-07-24 23:40:00,
2013-07-24 19:45:00,85.3,74.9,29.82,West,270,0.0,0.0,71,0.00,,,0.00,WUHU216HW,2013-07-24 23:45:00,
2013-07-24 19:51:00,85.1,75.2,29.83,West,270,0.0,0.0,72,0.00,,,0.00,WUHU216HW,2013-07-24 23:51:00,
2013-07-24 19:56:00,85.0,75.0,29.82,NNW,338,0.0,1.1,72,0.00,,,0.00,WUHU216HW,2013-07-24 23:56:00,
2013-07-24 20:01:00,84.6,75.0,29.82,NNW,338,0.0,1.1,73,0.00,,,0.00,WUHU216HW,2013-07-25 00:01:00,
2013-07-24 20:06:00,84.4,74.8,29.82,NNW,338,0.0,0.0,73,0.00,,,0.00,WUHU216HW,2013-07-25 00:06:00,
2013-07-24 20:11:00,84.1,74.4,29.82,NNW,338,0.0,0.0,73,0.00,,,0.00,WUHU216HW,2013-07-25 00:11:00,
2013-07-24 20:16:00,83.9,74.7,29.81,NNW,338,0.0,0.0,74,0.00,,,0.00,WUHU216HW,2013-07-25 00:16:00,
2013-07-24 20:21:00,83.7,74.9,29.82,NNW,338,0.0,0.0,75,0.00,,,0.00,WUHU216HW,2013-07-25 00:21:00,
2013-07-24 20:26:00,83.3,74.6,29.82,WSW,248,1.8,1.8,75,0.00,,,0.00,WUHU216HW,2013-07-25 00:26:00,
2013-07-24 20:31:00,83.2,74.8,29.82,West,270,4.0,4.3,76,0.00,,,0.00,WUHU216HW,2013-07-25 00:31:00,
2013-07-24 20:36:00,82.8,74.4,29.83,West,270,3.6,4.7,76,0.00,,,0.00,WUHU216HW,2013-07-25 00:36:00,
2013-07-24 20:41:00,82.6,74.3,29.83,WNW,293,2.0,4.9,76,0.00,,,0.00,WUHU216HW,2013-07-25 00:41:00,
2013-07-24 20:46:00,82.4,74.2,29.82,WSW,248,3.1,4.9,76,0.00,,,0.00,WUHU216HW,2013-07-25 00:46:00,
2013-07-24 20:51:00,82.3,73.5,29.82,NW,315,2.9,4.0,75,0.00,,,0.00,WUHU216HW,2013-07-25 00:51:00,
2013-07-24 20:56:00,81.9,73.6,29.83,NW,315,2.9,3.4,76,0.00,,,0.00,WUHU216HW,2013-07-25 00:56:00,
2013-07-24 21:01:00,81.7,72.6,29.83,WNW,293,1.3,3.1,74,0.00,,,0.00,WUHU216HW,2013-07-25 01:01:00,
2013-07-24 21:06:00,81.4,72.7,29.83,WSW,248,3.1,3.4,75,0.00,,,0.00,WUHU216HW,2013-07-25 01:06:00,
2013-07-24 21:11:00,81.0,72.4,29.83,West,270,1.3,3.4,75,0.00,,,0.00,WUHU216HW,2013-07-25 01:11:00,
2013-07-24 21:16:00,80.8,72.2,29.83,West,270,0.0,3.1,75,0.00,,,0.00,WUHU216HW,2013-07-25 01:16:00,
2013-07-24 21:21:00,80.6,72.0,29.83,West,270,2.0,4.0,75,0.00,,,0.00,WUHU216HW,2013-07-25 01:21:00,
2013-07-24 21:26:00,80.5,71.8,29.83,WNW,293,2.5,4.0,75,0.00,,,0.00,WUHU216HW,2013-07-25 01:26:00,
2013-07-24 21:31:00,80.1,71.5,29.83,WSW,248,0.2,2.9,75,0.00,,,0.00,WUHU216HW,2013-07-25 01:31:00,
2013-07-24 21:36:00,79.9,71.3,29.83,SSE,158,0.4,2.9,75,0.00,,,0.00,WUHU216HW,2013-07-25 01:36:00,
2013-07-24 21:41:00,79.7,71.1,29.84,NW,315,0.0,1.1,75,0.00,,,0.00,WUHU216HW,2013-07-25 01:41:00,
2013-07-24 21:46:00,79.6,70.9,29.84,WSW,248,0.0,1.1,75,0.00,,,0.00,WUHU216HW,2013-07-25 01:46:00,
2013-07-24 21:51:00,79.4,70.7,29.84,NNE,23,0.4,1.1,75,0.00,,,0.00,WUHU216HW,2013-07-25 01:51:00,
2013-07-24 21:56:00,79.0,70.7,29.84,NNE,23,0.0,0.4,76,0.00,,,0.00,WUHU216HW,2013-07-25 01:56:00,
2013-07-24 22:01:00,79.0,70.7,29.84,NNE,23,0.0,0.4,76,0.00,,,0.00,WUHU216HW,2013-07-25 02:01:00,
2013-07-24 22:06:00,78.8,70.6,29.84,NNE,23,0.0,0.0,76,0.00,,,0.00,WUHU216HW,2013-07-25 02:06:00,
2013-07-24 22:11:00,78.7,70.4,29.85,WSW,248,0.0,0.2,76,0.00,,,0.00,WUHU216HW,2013-07-25 02:11:00,
2013-07-24 22:16:00,78.5,70.3,29.85,WSW,248,0.0,0.2,76,0.00,,,0.00,WUHU216HW,2013-07-25 02:16:00,
2013-07-24 22:21:00,78.3,70.5,29.85,WSW,248,0.0,0.0,77,0.00,,,0.00,WUHU216HW,2013-07-25 02:21:00,
2013-07-24 22:26:00,78.3,70.5,29.85,WSW,248,0.0,0.0,77,0.00,,,0.00,WUHU216HW,2013-07-25 02:26:00,
2013-07-24 22:31:00,78.1,70.7,29.85,WSW,248,0.0,0.0,78,0.00,,,0.00,WUHU216HW,2013-07-25 02:31:00,
2013-07-24 22:36:00,77.9,70.5,29.85,WSW,248,0.0,0.0,78,0.00,,,0.00,WUHU216HW,2013-07-25 02:36:00,
2013-07-24 22:41:00,77.8,70.3,29.86,WSW,248,0.0,0.0,78,0.00,,,0.00,WUHU216HW,2013-07-25 02:41:00,
2013-07-24 22:46:00,77.6,70.1,29.86,WSW,248,0.0,0.0,78,0.00,,,0.00,WUHU216HW,2013-07-25 02:46:00,
2013-07-24 22:51:00,77.4,70.4,29.86,WSW,248,0.0,0.0,79,0.00,,,0.00,WUHU216HW,2013-07-25 02:51:00,
2013-07-24 22:56:00,77.2,70.2,29.86,WSW,248,0.9,0.9,79,0.00,,,0.00,WUHU216HW,2013-07-25 02:56:00,
2013-07-24 23:01:00,77.0,70.4,29.85,WSW,248,0.4,1.3,80,0.00,,,0.00,WUHU216HW,2013-07-25 03:01:00,
2013-07-24 23:06:00,76.7,70.4,29.85,WSW,248,1.6,1.6,81,0.00,,,0.00,WUHU216HW,2013-07-25 03:06:00,
2013-07-24 23:11:00,76.7,70.4,29.85,WSW,248,1.1,1.6,81,0.00,,,0.00,WUHU216HW,2013-07-25 03:11:00,
2013-07-24 23:16:00,76.5,70.3,29.86,West,270,0.9,1.3,81,0.00,,,0.00,WUHU216HW,2013-07-25 03:16:00,
2013-07-24 23:21:00,76.5,70.3,29.85,WSW,248,1.1,1.8,81,0.00,,,0.00,WUHU216HW,2013-07-25 03:21:00,
2013-07-24 23:27:00,76.3,70.1,29.85,WSW,248,0.7,1.8,81,0.00,,,0.00,WUHU216HW,2013-07-25 03:27:00,
2013-07-24 23:32:00,76.1,70.3,29.85,SW,225,1.1,1.3,82,0.00,,,0.00,WUHU216HW,2013-07-25 03:32:00,
2013-07-24 23:37:00,76.1,70.3,29.85,SW,225,1.1,1.8,82,0.00,,,0.00,WUHU216HW,2013-07-25 03:37:00,
2013-07-24 23:42:00,76.0,70.1,29.85,West,270,0.0,1.8,82,0.00,,,0.00,WUHU216HW,2013-07-25 03:42:00,
2013-07-24 23:47:00,76.0,70.1,29.85,WSW,248,0.4,0.7,82,0.00,,,0.00,WUHU216HW,2013-07-25 03:47:00,
2013-07-24 23:52:00,76.0,70.1,29.86,WSW,248,0.4,1.1,82,0.00,,,0.00,WUHU216HW,2013-07-25 03:52:00,
2013-07-24 23:57:00,75.8,69.9,29.85,WSW,248,0.0,1.1,82,0.00,,,0.00,WUHU216HW,2013-07-25 03:57:00,